Cadillac, MI

8:15 AM EDT on October 20, 2019 (GMT -0400)
Wexford County

Weather History for KCAD - June, 2019

Change the Weather History Date:

Wednesday, June 12, 2019

  Actual Average Record
Temperature  
Mean Temperature 60 °F -  
Max Temperature 65 °F 74 °F 92 °F (1956)
Min Temperature 55 °F 51 °F 36 °F (1979)
Degree Days  
Heating Degree Days 5    
Growing Degree Days 10 (Base 50)    
Moisture  
Dew Point 55 °F    
Average Humidity 84    
Maximum Humidity 95    
Minimum Humidity 60    
Precipitation  
Precipitation 0.00 in - - ()
Sea Level Pressure  
Sea Level Pressure 29.92 in    
Wind  
Wind Speed 3 mph (SSE)    
Max Wind Speed 10 mph    
Max Gust Speed 16 mph    
Visibility 10 miles    
Events Rain    
Averages and records for this station are not official NWS values.
T = Trace of Precipitation, MM = Missing Value Source: NWS Daily Summary

Daily Weather History Graph

Daily Weather History Graph

Search for Another Location

Airport or City:

Astronomy

Jun. 12, 2019 Rise Set
Actual Time 5:57 AM EDT 9:25 PM EDT
Civil Twilight 5:20 AM EDT 10:02 PM EDT
Nautical Twilight 4:33 AM EDT 10:50 PM EDT
Astronomical Twilight 3:31 AM EDT 11:51 PM EDT
Moon 4:20 PM EDT (6/12) 3:24 AM EDT (6/12)
Length of Visible Light 16h 41m
Length of Day
15h 28m
Waxing Gibbous, 76% of the Moon is Illuminated
Jun 12
Waxing Gibbous
Jun 17
Full
Jun 25
Last Quarter
Jul 2
New
Jul 9
First Quarter

Hourly Weather History & Observations

Time (EDT) Temp. Dew Point Humidity Pressure Visibility Wind Dir Wind Speed Gust Speed Precip Events Conditions
12:19 AM 62.2 °F 48.2 °F 60% 30.05 in 10.0 mi SSW 4.6 mph - N/A   Mostly Cloudy
12:37 AM 62.2 °F 48.2 °F 60% 30.05 in 10.0 mi South 4.6 mph - N/A   Overcast
12:55 AM 61.3 °F 48.6 °F 63% 30.04 in 10.0 mi South 3.5 mph - N/A   Overcast
1:15 AM 61.3 °F 49.1 °F 64% 30.04 in 10.0 mi Calm Calm - N/A   Overcast
1:35 AM 59.9 °F 53.1 °F 78% 30.03 in 10.0 mi South 3.5 mph - N/A   Light Drizzle
1:58 AM 60.4 °F 51.6 °F 73% 30.03 in 10.0 mi Calm Calm - N/A   Overcast
2:16 AM 59.9 °F 52.2 °F 76% 30.03 in 10.0 mi Calm Calm - N/A   Overcast
2:35 AM 59.2 °F 53.6 °F 82% 30.03 in 10.0 mi Calm Calm - N/A Rain Light Rain
2:55 AM 59.2 °F 52.0 °F 77% 30.03 in 10.0 mi Calm Calm - N/A Rain Light Rain
2:56 AM 59.4 °F 51.8 °F 76% 30.03 in 10.0 mi WSW 3.5 mph - N/A Rain Light Rain
3:19 AM 58.8 °F 53.6 °F 83% 30.04 in 10.0 mi Calm Calm - N/A Rain Light Rain
3:37 AM 59.0 °F 55.0 °F 87% 30.02 in 10.0 mi Calm Calm - N/A Rain Light Rain
3:55 AM 58.1 °F 55.8 °F 92% 30.03 in 10.0 mi Calm Calm - N/A Rain Light Rain
4:15 AM 58.1 °F 56.3 °F 94% 30.00 in 10.0 mi Calm Calm - N/A   Overcast
4:16 AM 58.1 °F 56.3 °F 94% 30.00 in 10.0 mi Calm Calm - N/A   Overcast
4:35 AM 58.5 °F 56.8 °F 94% 30.00 in 10.0 mi Calm Calm - N/A Rain Light Rain
4:39 AM 57.7 °F 56.1 °F 94% 30.00 in 10.0 mi Calm Calm - N/A Rain Light Rain
4:58 AM 56.8 °F 55.4 °F 95% 30.00 in 10.0 mi Calm Calm - N/A   Light Drizzle
5:16 AM 57.0 °F 55.4 °F 94% 30.00 in 10.0 mi Calm Calm - N/A Rain Light Rain
5:35 AM 57.0 °F 55.4 °F 94% 29.98 in 10.0 mi Calm Calm - N/A   Light Drizzle
5:36 AM 57.0 °F 55.4 °F 94% 29.98 in 10.0 mi Calm Calm - N/A Rain Light Rain
5:55 AM 57.7 °F 56.1 °F 94% 29.98 in 10.0 mi Calm Calm - N/A Rain Light Rain
5:56 AM 57.7 °F 56.1 °F 94% 29.98 in 10.0 mi Calm Calm - N/A Rain Light Rain
6:18 AM 58.5 °F 54.0 °F 85% 29.98 in 10.0 mi East 4.6 mph - N/A   Overcast
6:37 AM 58.3 °F 53.1 °F 83% 29.98 in 10.0 mi Calm Calm - N/A   Overcast
6:55 AM 58.3 °F 53.6 °F 84% 29.98 in 10.0 mi Calm Calm - N/A Rain Rain
7:15 AM 58.5 °F 55.8 °F 91% 29.98 in 10.0 mi East 4.6 mph - N/A   Overcast
7:16 AM 58.5 °F 55.9 °F 91% 29.97 in 10.0 mi East 4.6 mph - N/A   Overcast
7:35 AM 58.8 °F 55.8 °F 90% 29.97 in 10.0 mi East 3.5 mph - N/A   Overcast
7:57 AM 59.7 °F 54.5 °F 83% 29.97 in 10.0 mi Calm Calm - N/A   Overcast
8:16 AM 60.8 °F 52.9 °F 75% 29.96 in 10.0 mi Calm Calm - N/A   Overcast
8:35 AM 63.0 °F 50.9 °F 65% 29.95 in 10.0 mi South 4.6 mph - N/A   Mostly Cloudy
8:36 AM 63.1 °F 50.7 °F 64% 29.95 in 10.0 mi South 4.6 mph - N/A   Mostly Cloudy
8:55 AM 63.0 °F 50.2 °F 63% 29.95 in 10.0 mi SSW 5.8 mph - N/A   Mostly Cloudy
9:19 AM 63.3 °F 50.4 °F 63% 29.95 in 10.0 mi South 8.1 mph - N/A   Scattered Clouds
9:36 AM 63.5 °F 50.9 °F 63% 29.95 in 10.0 mi SSW 10.4 mph - N/A   Mostly Cloudy
9:55 AM 63.7 °F 51.3 °F 64% 29.94 in 10.0 mi SW 10.4 mph - N/A   Mostly Cloudy
9:56 AM 63.7 °F 51.3 °F 64% 29.94 in 10.0 mi SW 10.4 mph - N/A   Mostly Cloudy
10:15 AM 63.7 °F 52.5 °F 67% 29.95 in 10.0 mi SW 8.1 mph - N/A   Mostly Cloudy
10:35 AM 63.1 °F 52.2 °F 67% 29.95 in 10.0 mi WSW 8.1 mph - N/A   Overcast
10:58 AM 62.8 °F 52.5 °F 69% 29.95 in 10.0 mi WSW 6.9 mph - N/A   Overcast
11:16 AM 61.9 °F 54.3 °F 76% 29.96 in 10.0 mi WSW 4.6 mph - N/A Rain Rain
11:35 AM 60.8 °F 57.0 °F 87% 29.96 in 10.0 mi Calm Calm - N/A Rain Rain
11:36 AM 60.8 °F 57.4 °F 88% 29.96 in 10.0 mi Calm Calm - N/A Rain Rain
11:55 AM 61.0 °F 57.9 °F 90% 29.95 in 10.0 mi WNW 4.6 mph - N/A Rain Rain
12:19 PM 61.7 °F 55.8 °F 81% 29.94 in 10.0 mi SSE 4.6 mph - N/A   Overcast
12:37 PM 62.2 °F 56.1 °F 80% 29.93 in 10.0 mi East 4.6 mph - N/A Rain Light Rain
12:55 PM 61.3 °F 55.4 °F 81% 29.93 in 10.0 mi Calm Calm - N/A Rain Rain
12:56 PM 61.3 °F 55.6 °F 81% 29.92 in 10.0 mi ESE 3.5 mph - N/A Rain Rain
1:15 PM 61.9 °F 56.8 °F 84% 29.91 in 10.0 mi ESE 6.9 mph - N/A   Overcast
1:35 PM 62.1 °F 56.7 °F 82% 29.91 in 10.0 mi SE 6.9 mph - N/A   Overcast
1:57 PM 61.9 °F 54.9 °F 78% 29.91 in 10.0 mi ESE 5.8 mph - N/A Rain Light Rain
2:15 PM 61.9 °F 55.4 °F 79% 29.90 in 10.0 mi ESE 6.9 mph - N/A   Overcast
2:35 PM 62.6 °F 56.3 °F 80% 29.90 in 10.0 mi SE 8.1 mph - N/A Rain Light Rain
2:36 PM 62.6 °F 56.3 °F 80% 29.90 in 10.0 mi SE 8.1 mph - N/A Rain Light Rain
2:55 PM 63.5 °F 56.7 °F 78% 29.89 in 10.0 mi ESE 6.9 mph - N/A   Mostly Cloudy
2:59 PM 63.9 °F 56.8 °F 78% 29.89 in 10.0 mi SE 6.9 mph - N/A   Mostly Cloudy
3:17 PM 64.9 °F 57.7 °F 77% 29.89 in 10.0 mi ESE 4.6 mph - N/A   Scattered Clouds
3:35 PM 64.9 °F 57.4 °F 76% 29.88 in 10.0 mi South 4.6 mph - N/A Rain Light Rain
3:36 PM 64.9 °F 57.2 °F 76% 29.88 in 10.0 mi South 3.5 mph - N/A Rain Light Rain
3:55 PM 65.5 °F 57.7 °F 76% 29.88 in 10.0 mi SSW 4.6 mph - N/A Rain Light Rain
3:56 PM 65.5 °F 57.7 °F 76% 29.88 in 10.0 mi South 4.6 mph - N/A Rain Light Rain
4:15 PM 63.5 °F 59.4 °F 86% 29.88 in 10.0 mi SSW 8.1 mph - N/A Rain Rain
4:38 PM 62.8 °F 58.6 °F 86% 29.88 in 10.0 mi SW 10.4 mph 16.1 mph N/A   Light Drizzle
4:55 PM 61.9 °F 58.1 °F 87% 29.88 in 10.0 mi WNW 9.2 mph - N/A   Overcast
5:15 PM 61.3 °F 57.0 °F 86% 29.87 in 10.0 mi WNW 6.9 mph - N/A Rain Light Rain
5:35 PM 60.4 °F 59.0 °F 95% 29.88 in 10.0 mi West 4.6 mph - N/A Rain Light Rain
5:59 PM 59.9 °F 58.3 °F 94% 29.87 in 10.0 mi WNW 4.6 mph - N/A Rain Light Rain
6:17 PM 59.4 °F 57.7 °F 94% 29.86 in 10.0 mi NNW 4.6 mph - N/A Rain Light Rain
6:35 PM 59.2 °F 57.6 °F 94% 29.84 in 10.0 mi North 5.8 mph - N/A Rain Rain
6:55 PM 59.2 °F 57.6 °F 94% 29.85 in 10.0 mi ENE 4.6 mph - N/A   Overcast
7:15 PM 58.5 °F 56.8 °F 94% 29.86 in 4.0 mi Calm Calm - N/A Rain Rain
7:20 PM 58.5 °F 56.8 °F 94% 29.86 in 5.0 mi NNE 3.5 mph - N/A Rain Rain
7:38 PM 57.4 °F 55.8 °F 94% 29.86 in 10.0 mi Calm Calm - N/A Rain Rain
7:56 PM 57.2 °F 55.6 °F 94% 29.86 in 5.0 mi ENE 4.6 mph - N/A Rain Rain
8:15 PM 57.2 °F 55.4 °F 94% 29.84 in 10.0 mi North 5.8 mph - N/A Rain Rain
8:35 PM 56.8 °F 55.2 °F 94% 29.84 in 10.0 mi Calm Calm - N/A   Overcast
8:36 PM 56.8 °F 55.2 °F 94% 29.84 in 10.0 mi Calm Calm - N/A   Overcast
8:59 PM 56.8 °F 55.4 °F 95% 29.84 in 10.0 mi NNE 3.5 mph - N/A Rain Light Rain
9:17 PM 56.5 °F 54.9 °F 94% 29.84 in 10.0 mi North 3.5 mph - N/A   Overcast
9:35 PM 56.3 °F 54.9 °F 95% 29.83 in 10.0 mi Calm Calm - N/A   Overcast
9:36 PM 56.3 °F 54.9 °F 95% 29.83 in 10.0 mi Calm Calm - N/A   Overcast
9:55 PM 56.1 °F 54.5 °F 94% 29.83 in 10.0 mi Calm Calm - N/A   Overcast
9:56 PM 56.1 °F 54.5 °F 94% 29.83 in 10.0 mi Calm Calm - N/A   Overcast
10:15 PM 55.9 °F 54.5 °F 95% 29.83 in 10.0 mi Calm Calm - N/A   Overcast
10:20 PM 55.9 °F 54.5 °F 95% 29.83 in 10.0 mi Calm Calm - N/A   Overcast
10:38 PM 56.3 °F 54.5 °F 94% 29.83 in 10.0 mi NE 4.6 mph - N/A   Overcast
10:56 PM 56.3 °F 54.7 °F 94% 29.83 in 10.0 mi NE 4.6 mph - N/A   Overcast
11:15 PM 56.1 °F 54.5 °F 94% 29.84 in 10.0 mi Calm Calm - N/A Rain Rain
11:16 PM 56.1 °F 54.5 °F 94% 29.84 in 10.0 mi Calm Calm - N/A Rain Rain
11:35 PM 55.8 °F 54.1 °F 94% 29.81 in 10.0 mi North 8.1 mph - N/A Rain Rain
11:36 PM 55.8 °F 54.1 °F 94% 29.81 in 10.0 mi North 8.1 mph - N/A Rain Rain
11:59 PM 55.6 °F 54.0 °F 94% 29.81 in 10.0 mi NW 4.6 mph - N/A Rain Light Rain